Dewpoint
67 70 69 69 70 70 69 71 71 71 70 71 71 71 71 72 70 70 71 72 72 72 72 73 74 73 72 73 71 73 75 74 74 76 77 77 76 75 76 76 76 74 75 74 73 73 74 74 74 75 75 74 73 71 70 70 72 71 72 71 71 72 72 72 70 69 70 70 67 66 66 67 66 68 68 66 66 68 69 69 70 67 66 65 64
68 70 70 69 68 69 69 69 70 70 69 70 71 70 70 71 72 72 70 72 72 71 73 71 72 72 72 73 73 73 75 77 74 74 75 75 76 71 73 75 76 75 75 75 75 72 73 74 74 73 74 73 71 69 68 67 68 69 70 70 70 70 72 71 70 70 70 70 68 69 66 66 66 68 68 67 67 71 69 69 66 64 63 65 64
70 72 72 71 70 68 69 68 69 70 68 68 67 67 69 70 71 71 69 70 72 72 71 70 72 74 73 73 75 74 76 75 74 74 75 76 76 74 71 74 75 74 73 74 72 73 72 73 72 71 68 70 71 70 68 68 68 68 68 68 69 69 69 71 71 70 70 69 70 67 66 67 68 68 69 67 71 69 71 68 64 61 62 63 61
72 73 74 73 71 69 69 68 67 68 67 67 67 67 67 68 71 70 69 68 68 71 71 71 72 75 74 74 74 74 74 73 73 73 75 75 75 75 75 74 74 74 72 72 71 72 71 72 70 69 70 70 71 70 67 67 69 70 69 70 71 71 71 71 72 72 71 69 71 70 69 69 68 67 66 67 66 67 68 70 68 65 64 61 61
73 74 74 75 74 72 70 68 67 67 67 66 66 66 67 67 69 70 69 68 68 70 71 72 73 74 71 72 73 74 73 73 73 72 73 73 74 73 73 75 75 74 74 73 73 72 71 71 69 70 71 70 70 68 67 68 68 67 67 68 69 70 70 70 71 71 72 71 70 71 71 71 69 69 70 68 67 68 70 70 67 67 68 65 59
72 71 73 74 74 74 72 71 69 67 65 66 66 66 66 66 67 69 69 69 70 68 70 70 70 72 72 72 72 73 74 74 74 74 72 72 73 73 73 74 73 73 73 72 72 72 71 71 70 70 69 69 68 67 70 70 69 67 67 68 68 69 71 71 72 73 73 72 72 70 72 67 69 70 71 72 69 66 66 66 66 66 67 65 63
74 72 72 73 74 74 72 73 70 68 68 67 66 67 67 67 67 67 69 69 69 68 67 70 70 70 72 72 71 72 73 73 75 75 74 73 73 73 72 72 72 72 72 70 70 70 70 69 70 70 70 70 68 68 69 69 68 69 70 71 70 70 68 68 68 69 69 68 67 67 67 66 67 66 67 69 70 71 69 67 67 68 68 69 69
74 74 73 72 72 71 71 73 73 72 72 73 71 69 67 67 68 69 70 70 68 68 66 66 68 69 70 70 71 72 73 73 74 75 74 73 72 71 72 71 70 70 69 70 68 67 68 67 66 67 69 70 70 70 70 69 69 69 67 69 69 70 69 66 67 67 67 66 65 63 65 67 68 68 68 69 69 70 68 65 62 63 67 70 71
74 72 73 73 72 73 73 73 75 75 75 75 75 73 70 70 70 70 71 70 68 68 68 65 67 68 68 69 70 70 68 69 69 71 72 72 72 70 70 70 70 70 70 68 68 68 68 67 66 65 68 69 71 76 75 76 71 69 71 71 72 71 71 69 68 68 69 67 67 68 66 66 67 68 64 64 65 65 67 67 69 70 69 68 69
74 74 74 73 72 73 74 75 75 76 76 77 76 75 73 72 69 70 70 70 71 71 71 70 68 66 67 68 69 67 67 66 73 75 75 72 71 69 69 71 71 71 71 70 68 67 67 66 64 69 71 72 76 77 75 74 74 72 72 73 72 73 72 72 71 69 68 68 66 64 62 62 60 63 61 62 64 65 64 66 66 67 69 69 70
72 73 74 74 75 74 74 75 76 75 76 76 75 75 75 73 73 73 73 72 72 73 71 70 68 67 66 66 66 65 64 64 74 68 69 70 72 70 70 71 71 71 70 71 71 68 67 66 66 67 74 77 76 76 75 75 74 73 73 73 74 75 73 72 71 70 69 68 66 65 64 65 65 67 67 64 63 63 63 66 66 68 69 69 69
73 72 73 73 73 74 75 74 74 73 74 75 75 75 75 75 74 73 73 72 74 72 71 71 71 68 66 65 64 63 63 71 67 67 68 67 71 72 68 68 67 67 68 69 68 67 66 64 63 62 64 68 70 75 77 75 73 74 73 73 73 73 73 75 74 73 73 71 70 69 69 70 70 70 68 67 69 69 71 71 71 71 71 70 70
73 72 72 72 73 72 73 72 73 73 73 74 74 74 74 74 74 73 71 72 72 73 73 71 70 69 67 68 66 64 63 69 65 66 66 66 66 71 67 68 67 66 67 67 68 70 70 68 66 65 63 68 73 71 74 75 76 73 73 74 73 72 69 68 70 75 73 74 73 73 72 72 72 73 72 73 75 74 73 71 72 71 71 70 70
69 70 71 71 72 72 72 71 71 72 72 72 73 73 72 72 73 73 72 72 72 72 71 72 71 72 70 69 70 68 65 70 65 65 64 64 65 67 69 68 68 68 68 68 67 67 70 71 72 71 70 70 72 73 74 75 76 77 78 77 76 76 73 69 68 68 71 72 72 72 74 75 74 75 76 76 75 73 72 72 73 72 72 72 74
66 67 68 68 70 70 71 71 71 72 72 72 72 72 72 73 73 73 72 71 72 73 71 72 72 72 71 70 70 68 67 63 63 64 63 62 63 66 70 68 69 69 68 68 70 69 71 71 73 72 73 73 73 74 74 75 76 75 76 75 75 75 75 74 74 72 72 71 72 73 74 74 75 75 76 75 74 74 74 73 73 73 73 74 73
64 65 65 66 66 66 67 67 68 68 68 68 69 70 70 71 72 73 73 73 72 73 73 71 70 72 73 73 72 71 70 61 62 62 62 62 65 70 71 72 71 70 69 69 70 72 72 73 74 74 74 75 71 69 72 75 74 74 74 75 75 74 73 76 71 71 74 72 73 71 71 72 66 72 72 70 71 72 72 70 71 71 71 70 70
63 63 63 64 65 66 66 66 66 66 67 67 67 67 68 69 69 71 73 73 73 73 73 72 73 72 72 73 73 73 72 63 58 59 60 61 64 72 72 71 71 71 71 71 72 74 74 74 75 74 73 75 67 62 65 72 73 74 75 75 74 73 73 72 70 66 66 64 63 63 63 63 62 61 61 61 67 70 70 69 68 68 68 68 68
61 61 62 63 64 64 65 64 63 63 64 65 65 66 67 68 67 69 70 71 73 72 74 74 74 74 73 72 72 72 71 63 57 57 58 61 66 72 73 73 73 73 73 74 74 74 76 74 74 75 75 72 62 61 62 71 75 74 73 72 71 71 72 71 72 72 65 63 62 62 62 62 62 61 61 60 60 64 71 69 69 69 68 67 67
58 58 59 61 62 63 63 63 63 63 63 63 65 66 65 66 67 69 70 69 70 71 72 71 71 70 70 70 71 71 71 66 56 56 56 57 67 74 73 72 72 73 72 72 73 73 75 74 74 72 70 66 58 59 60 67 71 73 73 72 70 71 72 73 73 72 74 72 74 76 75 70 74 75 74 67 65 67 70 70 70 70 68 68 67
58 58 59 60 61 61 62 63 63 62 63 63 66 66 67 66 66 69 69 70 70 71 72 70 68 68 69 68 68 68 69 67 62 55 55 57 60 72 74 73 73 73 72 72 72 72 74 73 70 62 59 58 56 55 56 58 67 69 70 71 71 72 69 70 71 71 71 70 71 71 71 71 72 74 74 72 72 73 73 72 72 71 71 70 69
60 60 58 57 58 59 59 60 60 62 61 62 62 63 65 66 67 67 68 70 70 70 68 68 68 68 70 69 69 69 67 67 66 54 53 54 57 66 73 71 72 71 72 72 72 72 72 72 71 62 57 56 55 53 53 55 58 67 68 69 69 67 64 67 69 70 70 70 70 69 68 69 69 69 69 71 70 71 72 73 73 73 72 72 72
59 60 59 57 55 57 59 60 59 59 62 62 62 63 64 63 65 67 68 69 68 67 67 67 67 67 69 70 69 68 67 66 67 58 54 52 53 57 67 65 67 71 71 71 71 71 72 72 71 64 56 55 54 51 50 52 56 65 68 60 57 59 67 69 70 70 69 68 67 67 67 67 67 68 68 69 69 70 71 72 72 73 74 74 73
57 59 59 58 57 57 58 58 59 57 59 61 61 61 62 63 64 65 65 66 66 65 65 65 65 66 67 67 68 67 66 66 63 64 56 52 51 53 55 62 60 71 70 69 70 70 70 71 70 66 54 51 50 50 50 50 54 65 59 57 57 57 62 69 69 69 68 67 67 66 66 66 67 67 68 68 68 72 71 72 72 73 74 75 74
56 56 57 57 55 54 54 55 56 57 58 60 60 60 60 61 63 64 64 63 63 63 62 62 62 61 63 65 65 66 64 63 61 61 61 55 52 50 52 53 58 63 65 62 63 64 68 68 69 53 50 48 48 50 52 54 63 57 54 55 57 59 68 70 69 69 69 68 68 67 67 67 68 68 68 70 70 73 72 72 73 74 74 74 74
54 53 53 54 55 53 52 54 54 55 55 56 58 58 59 60 59 61 61 61 62 62 62 62 60 59 59 60 62 62 62 61 61 64 63 63 58 55 55 55 57 57 66 61 66 69 59 52 51 51 52 51 51 51 53 56 52 52 53 55 63 68 70 71 70 70 70 69 67 68 67 67 67 68 71 72 73 72 73 72 73 73 73 74 74
55 54 53 53 53 53 53 50 51 53 52 52 55 55 56 56 58 58 57 57 59 60 60 60 59 59 57 57 59 59 61 60 61 63 62 63 63 60 59 58 63 63 63 64 63 59 56 54 54 53 55 57 66 70 69 70 64 61 60 63 69 68 69 67 66 65 66 65 63 64 65 66 67 70 71 73 72 71 71 72 71 70 71 70 70
55 55 54 53 54 54 55 51 50 50 51 49 47 48 50 52 54 57 56 54 56 56 57 58 57 56 56 55 57 59 59 60 62 61 62 61 60 63 65 65 65 65 65 66 66 67 65 62 63 60 58 58 61 63 65 67 69 68 65 64 62 62 65 63 63 66 65 62 60 60 62 65 67 67 68 68 68 69 70 69 68 68 70 71 71
52 53 52 53 53 52 52 50 52 49 49 50 49 48 49 49 51 54 55 55 56 56 56 56 55 55 54 55 56 57 57 59 59 59 58 58 59 60 59 63 63 63 60 62 64 64 65 66 64 67 68 69 68 66 66 65 63 61 60 58 57 61 59 57 59 64 63 61 60 62 62 63 62 60 60 63 65 67 69 67 67 68 68 70 71
55 51 50 50 51 54 50 50 49 49 51 56 53 52 52 52 55 56 54 55 53 51 53 52 53 52 53 56 55 57 57 58 57 49 57 47 55 60 61 60 60 60 57 50 62 64 64 63 62 60 60 59 59 60 56 55 57 56 55 57 55 55 58 57 59 58 58 59 59 61 60 59 58 58 60 58 62 63 66 67 68 68 69 68 68
54 52 53 51 50 50 50 50 52 52 48 49 54 55 55 52 54 54 54 56 52 46 45 54 53 54 54 57 58 55 56 56 46 43 41 41 42 43 43 42 41 49 49 49 56 61 61 61 61 58 60 58 55 54 52 53 55 55 56 55 55 54 55 56 57 55 56 57 58 57 57 57 57 58 59 59 60 59 60 60 65 67 66 65 65
52 51 53 53 52 54 52 52 53 56 55 53 54 54 56 58 45 48 53 55 50 46 43 44 46 49 56 56 55 52 50 45 43 41 41 41 41 40 40 40 40 41 42 56 63 63 61 59 58 58 58 55 54 54 55 55 55 55 54 54 54 54 55 56 56 54 55 55 55 55 55 56 57 57 58 57 58 58 60 62 62 64 63 63 62
52 51 52 52 54 54 53 54 54 54 55 55 56 55 53 55 58 48 47 49 47 45 45 45 46 46 47 51 56 57 53 47 42 42 42 41 41 40 40 41 41 41 41 43 62 60 58 58 57 57 56 54 55 56 54 54 55 55 54 53 53 53 54 56 57 57 57 55 54 54 56 56 56 57 56 57 57 57 58 58 57 58 60 63 63
52 52 53 53 53 53 52 53 53 52 53 54 54 54 52 52 51 54 59 45 45 45 45 45 45 46 46 44 43 45 45 44 42 42 42 42 40 41 39 40 41 40 43 56 62 58 57 56 54 55 54 54 54 54 56 53 54 54 54 53 52 52 55 59 58 59 57 55 54 54 54 55 54 54 55 56 57 56 57 57 57 58 58 58 58
52 51 51 52 52 53 52 53 53 52 53 53 52 52 52 52 51 52 51 54 57 50 43 44 45 45 44 45 46 47 46 44 43 43 43 43 42 41 40 52 44 40 48 60 56 56 55 54 54 53 54 54 53 52 54 54 53 54 54 54 54 55 57 59 57 56 55 54 54 53 54 54 54 55 55 55 55 55 55 54 55 56 56 57 56
50 48 46 47 52 51 51 50 50 52 51 52 51 51 52 52 52 51 51 51 51 52 52 56 48 49 56 46 43 44 45 45 45 44 43 43 43 42 40 59 60 57 56 60 58 54 53 54 53 53 54 52 52 52 53 53 53 53 53 53 53 53 55 55 54 56 55 54 54 54 55 54 55 54 56 54 54 54 54 55 54 55 55 55 55
48 48 49 49 50 49 50 52 51 51 51 51 52 50 50 50 50 50 51 50 50 50 50 51 52 49 47 48 44 45 45 44 44 44 43 41 41 40 57 54 54 54 54 54 54 54 54 53 52 52 51 50 52 51 51 51 51 51 51 51 52 52 53 54 52 54 56 56 54 55 53 55 55 54 53 53 54 54 53 54 53 54 55 54 54
47 46 47 49 49 48 50 50 52 51 47 47 49 49 49 49 49 49 49 49 49 49 48 51 51 51 54 56 53 47 45 44 44 43 44 42 41 52 54 53 53 54 53 53 52 51 52 52 53 53 52 52 52 52 52 51 51 53 53 52 53 54 52 52 52 54 55 53 53 54 56 55 54 55 53 53 52 52 53 54 54 53 52 52 53
48 46 47 49 50 50 51 50 49 48 50 49 50 50 48 49 50 49 49 50 48 49 48 49 47 47 48 51 52 51 50 46 45 43 43 41 50 56 53 52 54 54 51 51 52 52 53 53 53 54 54 53 53 53 53 54 52 51 52 53 53 53 53 51 52 54 54 52 51 52 52 52 53 52 52 52 53 52 52 53 52 52 52 52 52
48 44 42 44 44 47 46 46 49 48 49 48 47 49 47 48 47 47 48 48 48 47 48 48 47 48 48 50 50 50 50 48 49 49 49 49 49 50 50 50 52 52 53 53 53 53 53 52 52 54 53 53 54 54 54 53 53 52 53 53 51 50 50 49 50 52 49 49 49 49 50 50 50 51 52 50 50 52 52 52 52 51 51 51 51
45 46 45 41 46 46 45 46 47 47 47 47 47 47 46 47 46 47 46 46 46 46 45 46 46 48 50 51 49 48 46 46 47 48 48 49 49 50 50 50 50 50 52 53 52 53 53 53 54 55 56 56 55 54 54 53 53 52 52 50 50 50 50 49 48 48 48 48 48 48 48 49 50 50 50 49 50 50 51 50 50 51 51 51 51
46 46 45 44 41 43 46 45 45 46 46 46 45 46 45 46 46 45 45 45 44 45 45 46 45 47 48 49 45 45 47 46 47 48 49 48 49 48 48 49 49 50 50 50 51 52 52 53 53 55 56 56 55 55 54 53 53 51 50 50 49 49 49 49 49 48 48 48 47 47 47 48 48 49 48 48 48 48 49 50 50 50 50 51 50
46 45 45 45 46 45 44 44 44 46 45 46 46 44 46 44 44 44 45 46 45 44 43 44 45 48 47 43 42 41 44 45 46 46 47 47 47 47 47 48 48 50 49 50 51 52 52 53 53 53 54 54 54 54 53 52 51 51 50 50 50 49 49 47 48 49 48 48 47 47 47 47 47 48 48 48 48 48 49 47 49 49 49 50 49
45 44 44 43 43 44 43 42 44 44 44 43 43 43 45 45 45 44 44 44 44 44 44 45 44 45 46 46 45 44 44 44 44 44 45 44 44 45 46 46 46 46 48 48 48 49 49 50 50 50 51 51 52 52 51 50 50 50 50 50 49 49 49 48 48 47 47 47 47 47 47 46 46 46 47 47 48 48 47 47 47 47 47 48 49
41 41 42 41 42 42 43 42 43 44 42 42 44 44 45 45 44 44 44 44 44 44 42 42 43 43 44 45 45 43 43 43 42 41 43 43 44 44 44 46 46 46 46 47 47 47 48 48 48 49 50 49 50 50 49 49 49 49 49 49 48 48 48 48 48 47 46 46 46 46 46 46 46 46 46 47 47 47 47 47 47 46 46 46 46
40 40 39 40 43 44 42 43 42 42 43 43 43 44 44 44 43 43 42 41 42 42 41 41 41 41 42 43 42 42 41 42 41 41 41 42 42 42 43 44 45 46 45 46 46 47 47 47 48 48 48 47 48 48 48 48 48 48 47 47 47 47 46 47 47 47 48 47 46 46 45 45 46 45 45 45 46 46 45 46 46 46 46 45 45
38 40 40 40 40 41 41 41 42 42 42 41 41 41 41 40 41 41 41 40 41 40 40 40 40 41 40 40 40 40 39 41 40 40 41 41 41 41 43 43 44 45 44 44 45 46 45 46 46 46 47 47 47 46 46 47 47 47 47 47 47 46 46 47 47 47 47 47 46 45 46 46 45 45 46 44 44 44 44 45 46 45 45 45 45
40 40 40 39 39 40 40 42 39 38 40 40 39 39 38 38 38 39 40 39 39 39 40 39 38 38 39 38 39 39 40 39 40 40 41 42 43 43 43 44 43 43 43 43 44 44 44 44 44 45 45 45 46 46 45 45 45 45 45 45 45 45 46 45 46 47 47 46 46 45 44 45 45 44 44 44 43 42 44 43 44 45 45 45 45
39 38 38 38 38 38 39 38 38 38 37 37 36 37 37 37 37 37 37 37 37 37 36 36 37 36 38 38 38 38 39 38 39 39 39 40 41 42 43 44 43 42 43 42 42 42 42 43 43 44 44 44 44 43 44 44 44 44 44 44 45 42 41 41 44 44 45 43 43 43 43 42 41 42 42 43 43 43 43 42 44 44 45 45 45
38 37 37 37 37 36 36 36 37 35 36 37 35 34 35 35 36 36 35 35 35 35 35 36 35 36 36 36 37 37 37 38 38 39 39 40 41 42 42 42 42 41 41 41 41 41 42 41 42 42 42 43 42 42 42 43 42 42 43 43 43 40 37 39 41 42 41 42 42 42 41 41 41 42 42 43 43 43 42 43 43 44 44 44 44
38 37 37 37 36 36 36 35 35 35 35 34 34 34 35 35 35 35 34 34 34 35 34 35 35 35 35 35 36 36 36 38 38 38 38 38 39 40 40 40 42 41 41 40 39 39 39 40 41 41 41 41 41 42 41 41 42 41 42 41 38 36 36 38 40 40 40 41 40 41 40 41 41 41 41 41 42 42 42 42 43 43 43 43 44
38 36 36 35 35 35 35 35 35 35 36 35 35 35 35 34 34 35 34 34 34 33 34 34 35 34 36 34 36 36 36 37 37 37 37 38 39 39 39 40 39 39 39 38 38 38 39 39 38 39 40 40 40 41 40 41 40 42 39 38 36 35 36 38 39 37 38 38 40 40 39 39 40 39 39 39 40 40 42 42 42 42 42 42 42